SCP
0 0 0 0 0 0 0 0 0 0 0 0 0 0 0 0 0 0 -0 -0 0 0 0 0 0 0 -0 -0 -0 0 0 -0
0 0 0 0 0 0 0 0 0 0 0 0 0 0 0 0 0 0 0 -0 0 0 0 0 0 0 -0 -0 0 0 0 -0
0 0 0 0 0 0 0 0 0 0 0 0 0 0 0 -0 0 -0 0 -0 -0 -0 0 0 0 0 -0 0 0 0 0 0
0 0 0 0 0 0 0 0 0 0 0 0 -0 -0 0 0 0 -0 -0 -0 -0 0 -0 0 0 0 -0 0 0 0 0 0
0 0 0 0 0 0 0 0 0 0 0 0 -0 0 -0 -0 0 0 0 0 0 0 -0 0 -0 0 -0 -0 -0 0 0 0
0 0 0 0 0 0 0 0 0 0 0 0 0 0 -0 -0 -0 0 0 0 0 0 -0 -0 0 0 -0 -0 0 0 -0 0
0 0 0 0 0 0 0 0 0 0 0 0 0 0 -0 0 0 0 0 0 0 0 -0 -0 0 -0 -0 -0 -0 0 0 0
0 0 0 0 0 0 0 0 0 0 0 0 0 -0 0 0 0 0 0 0 0 0 -0 0 -0 -0 -0 -0 0 0 0 0
0 0 0 0 0 0 0 0 0 0 0 0 0 0 -0 -0 -0 -0 0 0 0 0 0 0 -0 -0 -0 -0 0 0 0 -0
0 0 0 0 0 0 0 0 0 0 0 0 0 0 0 0 -0 -0 0 0 0 0 0 0 0 -0 -0 -0 0 0 0 0
0 0 0 0 0 0 0 0 0 0 0 0 0 0 0 0 0 0 0 0 0 0 0 0 0 0 0 0 -0 0 0 0
0 0 0 0 0 0 0 0 0 0 0 0 0 0 0 0 0 0 0 0 0 0 0 0 0 0 0 0 -0 0 -0 -0
0 0 0 0 0 0 0 0 0 0 0 0 0 0 0 0 0 0 0 -0 0 0 0 0 0 0 0 0 0 0 0 -0
0 0 0 0 0 0 0 0 0 0 0 0 0 0 0 0 0 0 -0 -0 -0 0 0 0 0 0 0 0 0 0 0 0
0 0 0 0 0 0 0 0 0 0 0 -0 0 0 0 0 0 0 0 -0 -0 -0 0 0 0 0 0 0 0 0 0 0
0 0 0 0 0 0 0 0 0 0 0 0 0 0 0 0 0 0 0 0 0 -0 0 0 0 0 0 0 0 0 0 0
0 0 0 0 0 0 0 0 0 0 0 0 0 0 0 0 0 0 0 0 0 0 -0 0 0 0 0 0 0 0 0 0
0 0 0 0 0 0 0 0 0 0 0 0 0 0 0 0 0 0 0 0 0 0 0 0 0 0 0 0 0 0 0 0
0 0 0 0 0 0 0 0 0 0 0 0 0 0 0 0 0 0 0 0 0 0 0 0 0 0 0 0 0 0 0 0
0 0 0 0 0 0 0 0 0 0 0 0 0 0 0 -0 0 0 0 0 0 0 0 0 0 0 0 0 0 0 0 0
Wind_Speed_500mb
33 34 35 36 38 40 41 40 40 37 30 32 37 41 31 32 35 28 30 28 23 27 21 11 12 8 4 6 9 9 12 16
33 35 37 37 40 43 44 45 43 42 35 31 38 37 32 34 35 28 30 27 26 22 13 11 9 7 6 3 5 7 11 13
35 40 41 39 41 43 46 48 49 44 39 36 35 35 33 36 26 21 23 22 25 19 14 13 9 11 8 7 5 2 6 8
35 41 41 40 41 44 46 48 48 50 53 37 30 34 41 33 25 22 26 25 21 15 15 17 12 10 18 9 2 4 4 5
34 38 40 40 41 42 44 45 45 46 51 47 37 38 36 39 23 23 26 22 22 17 16 19 16 15 18 16 12 6 4 3
35 37 41 41 42 40 43 46 46 46 48 55 39 31 23 32 24 25 26 25 27 21 17 20 20 17 16 13 12 13 9 2
38 40 42 45 44 42 45 43 43 44 44 45 50 24 18 30 27 22 24 25 26 21 17 18 20 22 20 19 15 13 12 9
43 44 46 44 45 40 41 43 40 41 43 42 41 32 25 31 35 29 27 23 24 23 20 17 20 20 20 26 25 18 17 16
39 40 42 45 46 38 35 41 38 41 41 38 36 33 30 26 36 46 38 29 30 28 25 22 20 20 20 21 20 23 20 18
37 40 40 39 36 36 38 38 42 41 40 36 31 31 29 29 27 22 43 33 34 32 30 24 22 21 18 16 20 23 23 19
36 37 35 32 34 33 35 37 38 39 40 38 33 28 27 31 25 18 20 31 28 32 30 28 28 30 19 18 13 13 22 24
34 31 32 34 36 38 38 40 40 40 40 40 35 29 28 26 26 20 21 17 26 24 31 32 29 28 25 17 15 14 21 24
28 32 34 34 36 35 34 35 37 36 36 35 34 28 28 26 23 24 20 25 31 29 33 28 27 27 26 26 23 16 14 17
31 32 31 33 31 32 37 37 41 35 35 33 31 29 26 24 24 22 20 15 19 21 15 36 25 33 28 25 30 28 19 19
30 29 29 27 29 32 35 40 40 35 34 34 29 27 26 26 23 26 22 16 16 17 16 7 44 38 31 34 35 31 30 27
26 25 27 28 30 32 32 36 41 39 36 33 31 30 27 26 25 25 24 18 17 16 19 17 15 32 33 33 35 36 33 36
25 24 28 28 30 31 33 32 32 34 32 33 35 35 24 20 20 20 20 18 18 18 24 20 23 13 34 30 32 34 34 38
28 28 27 27 30 31 32 33 34 29 27 34 39 31 28 22 19 21 19 19 17 17 17 23 21 16 4 22 27 29 33 30
28 28 28 27 28 31 30 31 36 30 25 26 34 26 26 25 23 21 22 21 19 18 19 19 12 17 11 14 27 25 32 42
28 30 28 26 27 32 26 25 37 30 27 26 29 27 22 24 24 22 20 20 20 20 20 17 19 9 16 17 19 25 25 26
Wind_Direction_500mb
350 349 349 349 347 343 339 331 318 306 293 290 285 263 255 274 275 278 276 279 278 311 295 281 303 282 268 318 12 41 34 28
345 344 341 340 341 341 341 338 331 318 306 291 288 260 251 268 273 279 275 267 270 281 283 256 285 249 235 322 348 14 32 36
343 343 338 336 337 337 336 335 335 330 314 291 286 262 247 279 266 260 269 264 262 262 266 250 245 237 229 261 291 320 20 33
339 343 342 339 338 336 335 337 339 336 338 313 282 272 250 266 273 266 260 256 263 270 261 249 224 220 229 248 234 352 80 25
332 336 341 339 339 338 337 338 336 339 334 335 306 276 289 252 269 253 250 269 256 263 250 243 223 218 236 240 263 198 199 320
327 329 332 333 333 333 334 336 336 334 338 339 329 298 258 242 279 253 251 254 256 250 242 231 226 212 221 230 214 209 246 246
321 321 321 322 321 320 324 330 335 334 337 338 338 311 255 255 284 273 255 241 247 260 246 226 219 223 221 229 239 236 242 233
316 316 316 314 318 314 320 323 330 334 333 339 339 339 269 256 264 285 257 246 248 246 257 247 232 225 234 229 236 232 236 232
322 321 323 325 320 320 326 325 331 333 329 330 337 337 326 324 268 257 259 260 249 242 243 250 234 232 227 237 236 225 229 231
331 329 329 330 331 336 333 332 330 328 327 325 330 335 334 326 308 288 258 252 256 257 246 247 230 227 232 241 241 242 224 224
335 334 333 335 334 338 335 332 332 331 329 326 324 327 334 338 335 306 262 278 269 250 243 235 230 227 221 229 247 280 228 223
338 339 342 339 337 335 331 328 328 327 323 322 324 326 332 333 338 334 336 304 270 270 244 245 228 229 234 227 231 256 214 217
344 340 339 340 341 340 339 339 337 334 332 325 320 324 324 328 325 327 335 352 305 301 260 236 233 229 233 235 207 201 211 217
343 343 342 341 342 345 347 347 346 336 336 330 325 323 318 313 315 317 323 332 354 272 302 238 233 228 226 228 227 228 227 227
341 342 344 339 344 346 349 351 347 350 339 341 326 318 309 315 311 315 317 331 345 337 314 248 223 230 230 231 226 227 230 237
341 345 345 341 342 345 347 356 4 3 2 357 346 333 321 305 310 308 316 317 341 354 340 340 227 231 229 226 221 223 231 234
343 339 340 340 345 342 344 337 352 353 356 357 349 347 344 339 324 331 343 348 353 355 354 314 334 200 222 228 224 220 230 235
337 335 334 336 341 340 342 343 344 340 347 344 351 350 353 350 349 354 350 345 338 339 347 335 327 340 233 222 239 228 230 244
325 328 326 329 333 337 338 346 347 341 340 347 347 349 350 349 345 341 329 336 329 327 319 320 317 304 307 245 226 228 236 240
324 327 326 321 320 328 332 340 348 348 352 346 347 349 352 352 354 353 347 344 337 330 328 328 338 338 301 280 258 236 234 237
Wind_Speed_850mb
33 34 35 36 38 40 41 40 40 37 30 32 37 41 31 32 35 28 30 28 23 27 21 11 12 8 4 6 9 9 12 16
33 35 37 37 40 43 44 45 43 42 35 31 38 37 32 34 35 28 30 27 26 22 13 11 9 7 6 3 5 7 11 13
35 40 41 39 41 43 46 48 49 44 39 36 35 35 33 36 26 21 23 22 25 19 14 13 9 11 8 7 5 2 6 8
35 41 41 40 41 44 46 48 48 50 53 37 30 34 41 33 25 22 26 25 21 15 15 17 12 10 18 9 2 4 4 5
34 38 40 40 41 42 44 45 45 46 51 47 37 38 36 39 23 23 26 22 22 17 16 19 16 15 18 16 12 6 4 3
35 37 41 41 42 40 43 46 46 46 48 55 39 31 23 32 24 25 26 25 27 21 17 20 20 17 16 13 12 13 9 2
38 40 42 45 44 42 45 43 43 44 44 45 50 24 18 30 27 22 24 25 26 21 17 18 20 22 20 19 15 13 12 9
43 44 46 44 45 40 41 43 40 41 43 42 41 32 25 31 35 29 27 23 24 23 20 17 20 20 20 26 25 18 17 16
39 40 42 45 46 38 35 41 38 41 41 38 36 33 30 26 36 46 38 29 30 28 25 22 20 20 20 21 20 23 20 18
37 40 40 39 36 36 38 38 42 41 40 36 31 31 29 29 27 22 43 33 34 32 30 24 22 21 18 16 20 23 23 19
36 37 35 32 34 33 35 37 38 39 40 38 33 28 27 31 25 18 20 31 28 32 30 28 28 30 19 18 13 13 22 24
34 31 32 34 36 38 38 40 40 40 40 40 35 29 28 26 26 20 21 17 26 24 31 32 29 28 25 17 15 14 21 24
28 32 34 34 36 35 34 35 37 36 36 35 34 28 28 26 23 24 20 25 31 29 33 28 27 27 26 26 23 16 14 17
31 32 31 33 31 32 37 37 41 35 35 33 31 29 26 24 24 22 20 15 19 21 15 36 25 33 28 25 30 28 19 19
30 29 29 27 29 32 35 40 40 35 34 34 29 27 26 26 23 26 22 16 16 17 16 7 44 38 31 34 35 31 30 27
26 25 27 28 30 32 32 36 41 39 36 33 31 30 27 26 25 25 24 18 17 16 19 17 15 32 33 33 35 36 33 36
25 24 28 28 30 31 33 32 32 34 32 33 35 35 24 20 20 20 20 18 18 18 24 20 23 13 34 30 32 34 34 38
28 28 27 27 30 31 32 33 34 29 27 34 39 31 28 22 19 21 19 19 17 17 17 23 21 16 4 22 27 29 33 30
28 28 28 27 28 31 30 31 36 30 25 26 34 26 26 25 23 21 22 21 19 18 19 19 12 17 11 14 27 25 32 42
28 30 28 26 27 32 26 25 37 30 27 26 29 27 22 24 24 22 20 20 20 20 20 17 19 9 16 17 19 25 25 26
Wind_Direction_850mb
350 349 349 349 347 343 339 331 318 306 293 290 285 263 255 274 275 278 276 279 278 311 295 281 303 282 268 318 12 41 34 28
345 344 341 340 341 341 341 338 331 318 306 291 288 260 251 268 273 279 275 267 270 281 283 256 285 249 235 322 348 14 32 36
343 343 338 336 337 337 336 335 335 330 314 291 286 262 247 279 266 260 269 264 262 262 266 250 245 237 229 261 291 320 20 33
339 343 342 339 338 336 335 337 339 336 338 313 282 272 250 266 273 266 260 256 263 270 261 249 224 220 229 248 234 352 80 25
332 336 341 339 339 338 337 338 336 339 334 335 306 276 289 252 269 253 250 269 256 263 250 243 223 218 236 240 263 198 199 320
327 329 332 333 333 333 334 336 336 334 338 339 329 298 258 242 279 253 251 254 256 250 242 231 226 212 221 230 214 209 246 246
321 321 321 322 321 320 324 330 335 334 337 338 338 311 255 255 284 273 255 241 247 260 246 226 219 223 221 229 239 236 242 233
316 316 316 314 318 314 320 323 330 334 333 339 339 339 269 256 264 285 257 246 248 246 257 247 232 225 234 229 236 232 236 232
322 321 323 325 320 320 326 325 331 333 329 330 337 337 326 324 268 257 259 260 249 242 243 250 234 232 227 237 236 225 229 231
331 329 329 330 331 336 333 332 330 328 327 325 330 335 334 326 308 288 258 252 256 257 246 247 230 227 232 241 241 242 224 224
335 334 333 335 334 338 335 332 332 331 329 326 324 327 334 338 335 306 262 278 269 250 243 235 230 227 221 229 247 280 228 223
338 339 342 339 337 335 331 328 328 327 323 322 324 326 332 333 338 334 336 304 270 270 244 245 228 229 234 227 231 256 214 217
344 340 339 340 341 340 339 339 337 334 332 325 320 324 324 328 325 327 335 352 305 301 260 236 233 229 233 235 207 201 211 217
343 343 342 341 342 345 347 347 346 336 336 330 325 323 318 313 315 317 323 332 354 272 302 238 233 228 226 228 227 228 227 227
341 342 344 339 344 346 349 351 347 350 339 341 326 318 309 315 311 315 317 331 345 337 314 248 223 230 230 231 226 227 230 237
341 345 345 341 342 345 347 356 4 3 2 357 346 333 321 305 310 308 316 317 341 354 340 340 227 231 229 226 221 223 231 234
343 339 340 340 345 342 344 337 352 353 356 357 349 347 344 339 324 331 343 348 353 355 354 314 334 200 222 228 224 220 230 235
337 335 334 336 341 340 342 343 344 340 347 344 351 350 353 350 349 354 350 345 338 339 347 335 327 340 233 222 239 228 230 244
325 328 326 329 333 337 338 346 347 341 340 347 347 349 350 349 345 341 329 336 329 327 319 320 317 304 307 245 226 228 236 240
324 327 326 321 320 328 332 340 348 348 352 346 347 349 352 352 354 353 347 344 337 330 328 328 338 338 301 280 258 236 234 237